[[{"header":{"parameterUnit":"m.s-1","parameterCategory":1,"la1":30.2991,"la2":30.254,"lo1":-89.0895,"lo2":-89.0444,"dy":0.0017,"dx":0.0017,"nx":28,"ny":28,"refTime":"2024-08-09T03:00:00:Z","depth":0,"parameterNumber":2,"parameterNumberName":"U-component_of_WINDS"},"data":[0,0,0,0,0,0,0,0,0,0,0,0,0,0,0,0,0,0,0,0,0,0,0,0,0,0,0,0,0,0,0,0,0,0,0,0,0,0,0,0,0,0,0,0,0,0,0,0,0,0,0,0,0,0,0,0,0,0,1.0693,1.0695,0,1.0864,1.0866,1.0868,1.0918,1.0918,1.0917,1.0916,1.1095,1.1101,1.1106,0,0,0,0,0,0,0,0,0,0,0,0,0,1.0412,1.0417,1.0693,1.0695,1.0697,1.0864,1.0866,1.0869,1.0919,1.0917,1.0916,1.0915,1.1093,1.11,1.1107,0,0,0,0,0,0,0,0,0,0,0,0,0,1.0554,1.0418,1.0692,1.0742,1.0748,1.0864,1.0866,1.0869,1.0919,1.0917,1.0916,1.0915,1.1091,1.1099,1.1108,1.1187,0,0,1.1133,1.1137,0,0,0,0,0,0,0,0,1.0546,1.0564,1.0732,1.0739,1.0746,1.0869,1.0833,1.0976,1.0919,1.0854,1.0916,1.0914,1.1021,1.1035,1.1071,1.1196,1.1203,1.1134,1.1139,1.1143,1.1145,0,0,0,0,0,0,0,1.0536,1.0557,1.0761,1.0735,1.0743,1.0757,1.0775,1.0861,1.0943,1.086,1.0864,1.0883,1.1025,1.1062,1.1075,1.1206,1.1134,1.1141,1.1147,1.115,1.1405,1.1407,0,0,0,0,0,0,1.0517,1.0548,1.0755,1.0766,1.064,1.0763,1.0784,1.0831,1.0943,1.0958,1.0884,1.0885,1.1049,1.1065,1.1082,1.1182,1.1143,1.1151,1.1156,1.1404,1.1406,1.1408,0,0,0,0,0,0,1.0511,1.0535,1.0748,1.0658,1.0686,1.0769,1.0821,1.0835,1.0872,1.0961,1.0976,1.0907,1.1048,1.107,1.116,1.1189,1.1155,1.1162,1.1402,1.1404,1.1407,1.1383,0,0,0,0,0,0,1.0502,1.0532,1.0562,1.0659,1.0691,1.0823,1.0823,1.0839,1.0886,1.0889,1.0987,1.1002,1.1049,1.1147,1.1169,1.12,1.1169,1.14,1.1403,1.1406,1.1381,1.1384,1.1387,0,0,0,0,0,1.0492,1.055,1.0564,1.0588,1.073,1.0824,1.0843,1.0895,1.0888,1.092,1.0977,1.0999,1.1182,1.1156,1.1181,1.1215,1.1398,1.1402,1.1406,1.138,1.1384,1.1386,0,0,0,0,0,0,1.0456,1.0563,1.058,1.067,1.0737,1.0833,1.0874,1.0897,1.0969,1.0968,1.1031,1.1053,1.1139,1.1186,1.1155,1.1298,1.1291,1.13,1.1263,1.1267,1.127,1.1256,1.1176,0,0,0,0,0,1.0458,1.0524,1.0615,1.0686,1.0719,1.079,1.0833,1.0867,1.0941,1.097,1.1033,1.1104,1.1178,1.1226,1.1299,1.1389,1.1411,1.1425,1.1427,1.1429,1.1435,1.1487,1.1494,1.142,1.142,1.142,0,0,1.0463,1.053,1.0569,1.068,1.0737,1.0805,1.0814,1.0886,1.0937,1.0981,1.107,1.1119,1.1203,1.1293,1.1337,1.1336,1.1461,1.1434,1.1434,1.144,1.1491,1.1498,1.1504,1.1423,1.1423,1.1422,0,0,1.0508,1.0565,1.063,1.0687,1.0772,1.0819,1.0834,1.0927,1.0961,1.1051,1.1085,1.1148,1.1274,1.1332,1.1378,1.1445,1.1468,1.1468,1.1481,1.153,1.1536,1.1541,1.1565,1.1572,1.1474,1.1474,1.1474,0,1.0504,1.0607,1.0661,1.0731,1.0779,1.0821,1.0888,1.094,1.1045,1.1078,1.1075,1.1234,1.1294,1.1398,1.1414,1.1451,1.1471,1.1456,1.153,1.1536,1.1542,1.1565,1.1574,1.1473,1.1474,1.1474,1.1474,0,1.0598,1.0669,1.0712,1.0811,1.0864,1.0932,1.0997,1.1045,1.1075,1.1123,1.1214,1.1287,1.1375,1.1403,1.1434,1.1512,1.1509,1.1518,1.1512,1.1547,1.157,1.158,1.1472,1.1473,1.1473,1.1473,0,0,1.0623,1.0751,1.0766,1.0811,1.0908,1.0965,1.1036,1.1121,1.116,1.1232,1.1293,1.1399,1.1407,1.1459,1.1497,1.154,1.1588,1.1544,1.1547,1.1549,1.1679,1.1671,1.168,1.1604,1.1606,1.1608,1.1672,0,1.0679,1.0805,1.0856,1.0959,1.1025,1.1066,1.1128,1.1195,1.1242,1.1306,1.1359,1.1433,1.1439,1.147,1.1515,1.1573,1.1615,1.1569,1.1662,1.1665,1.1638,1.1693,1.1685,1.1741,1.1681,1.1683,1.1684,0,1.0761,1.0832,1.094,1.103,1.106,1.1114,1.1196,1.1257,1.1334,1.1365,1.1423,1.1459,1.1535,1.1526,1.1632,1.16,1.1641,1.1675,1.1679,1.1689,1.1675,1.1703,1.1761,1.1769,1.1699,1.1698,1.1697,0,1.0767,1.089,1.0971,1.1009,1.1115,1.1152,1.1198,1.1274,1.1322,1.1395,1.1427,1.1508,1.1552,1.1614,1.1671,1.1659,1.1773,1.1767,1.1801,1.1799,1.1822,1.182,1.1886,1.185,1.185,1.185,1.185,0,1.0824,1.0888,1.0975,1.1024,1.1098,1.1157,1.1229,1.1279,1.1346,1.1406,1.1448,1.1505,1.1577,1.1642,1.1688,1.1769,1.1789,1.1817,1.1828,1.1813,1.1809,1.184,1.1837,1.1852,1.1852,1.1851,1.1851,0,1.0842,1.0903,1.0993,1.1087,1.1112,1.1162,1.1243,1.1293,1.1342,1.1418,1.144,1.1518,1.1597,1.166,1.1765,1.1795,1.1881,1.1894,1.1854,1.1859,1.1889,1.1885,1.1977,1.1992,1.1946,1.1947,1.1947,0,1.0873,1.0924,1.1023,1.1066,1.1111,1.118,1.1229,1.129,1.1339,1.1431,1.1471,1.1553,1.1622,1.1748,1.1815,1.1895,1.1909,1.1936,1.1922,1.1904,1.1909,1.1904,1.191,1.1937,1.1937,1.1938,1.1938,0,1.0922,1.095,1.1018,1.1097,1.1154,1.122,1.1287,1.132,1.1393,1.1447,1.1528,1.1581,1.1688,1.1769,1.1856,1.1906,1.1934,1.1942,1.1954,1.1938,1.1912,1.1926,1.1857,1.1939,1.1939,1.1939,1.1939,1.1939,1.0948,1.0995,1.1071,1.1146,1.1202,1.1264,1.1315,1.1371,1.1439,1.153,1.1562,1.1646,1.1723,1.1843,1.1893,1.196,1.1962,1.1979,1.1983,1.1986,1.1984,1.1902,1.1976,1.1976,1.1976,1.1976,1.1976,0,1.0998,1.1049,1.1118,1.1209,1.1268,1.1289,1.1365,1.1413,1.1485,1.1554,1.1621,1.1715,1.1795,1.1867,1.1951,1.199,1.2006,1.201,1.2007,1.2018,1.1978,1.1959,1.1996,1.1996,1.1996,1.1996,1.1996,1.1996,1.1031,1.1111,1.1148,1.1256,1.1308,1.1389,1.143,1.1487,1.1543,1.1645,1.1711,1.1757,1.1829,1.1917,1.1991,1.2011,1.2039,1.204,1.2063,1.2024,1.2021,1.2018,1.2001,1.2046,1.2046,1.2098,1.2098,1.2099]},{"header":{"parameterUnit":"m.s-1","parameterCategory":1,"la1":30.2991,"la2":30.254,"lo1":-89.0895,"lo2":-89.0444,"dy":0.0017,"dx":0.0017,"nx":28,"ny":28,"refTime":"2024-08-09T03:00:00:Z","depth":0,"parameterNumber":3,"parameterNumberName":"V-component_of_WINDS"},"data":[0,0,0,0,0,0,0,0,0,0,0,0,0,0,0,0,0,0,0,0,0,0,0,0,0,0,0,0,0,0,0,0,0,0,0,0,0,0,0,0,0,0,0,0,0,0,0,0,0,0,0,0,0,0,0,0,0,0,2.684,2.684,0,2.6839,2.6839,2.6839,2.6791,2.679,2.6788,2.6787,2.6785,2.6786,2.6787,0,0,0,0,0,0,0,0,0,0,0,0,0,2.6799,2.68,2.684,2.684,2.684,2.6839,2.6839,2.6839,2.6791,2.679,2.6788,2.6787,2.6785,2.6786,2.6787,0,0,0,0,0,0,0,0,0,0,0,0,0,2.6809,2.68,2.684,2.6816,2.6814,2.6839,2.6839,2.6839,2.6791,2.679,2.6788,2.6786,2.6784,2.6786,2.6787,2.6835,0,0,2.6793,2.6793,0,0,0,0,0,0,0,0,2.6809,2.6811,2.682,2.6818,2.6815,2.6813,2.6823,2.6838,2.6792,2.68,2.6787,2.6785,2.6796,2.6796,2.68,2.6835,2.6835,2.6793,2.6794,2.6794,2.6795,0,0,0,0,0,0,0,2.6808,2.6811,2.684,2.682,2.6817,2.6805,2.6804,2.6826,2.6808,2.6799,2.6796,2.6796,2.6794,2.6799,2.68,2.6835,2.6793,2.6794,2.6795,2.6796,2.6905,2.6907,0,0,0,0,0,0,2.6811,2.681,2.684,2.684,2.6807,2.6807,2.6806,2.6816,2.6808,2.6805,2.6798,2.6794,2.6797,2.6798,2.68,2.6852,2.6794,2.6796,2.6797,2.6903,2.6905,2.6908,0,0,0,0,0,0,2.681,2.6814,2.684,2.6824,2.6826,2.681,2.6821,2.6817,2.6821,2.6807,2.6803,2.6806,2.6795,2.6797,2.6826,2.6851,2.6797,2.6798,2.6901,2.6904,2.6907,2.6959,0,0,0,0,0,0,2.6809,2.6814,2.6832,2.6825,2.6827,2.6867,2.6822,2.6818,2.6824,2.6819,2.6813,2.6811,2.6794,2.6824,2.6828,2.6853,2.6799,2.6898,2.6902,2.6906,2.6955,2.6963,2.697,0,0,0,0,0,2.6808,2.6848,2.6834,2.6837,2.685,2.6868,2.687,2.685,2.6827,2.6844,2.6835,2.6811,2.6849,2.6827,2.6831,2.6857,2.6897,2.6901,2.6905,2.6951,2.6961,2.697,0,0,0,0,0,0,2.6859,2.6846,2.6831,2.6869,2.687,2.686,2.6882,2.6862,2.687,2.6864,2.684,2.6839,2.6871,2.6867,2.6843,2.6901,2.6868,2.6874,2.6902,2.6911,2.6919,2.6918,2.6801,0,0,0,0,0,2.6875,2.6891,2.6879,2.6914,2.6916,2.6899,2.6906,2.6891,2.6891,2.6891,2.6884,2.6884,2.6895,2.6904,2.6914,2.6955,2.6951,2.6974,2.6982,2.6989,2.6993,2.7011,2.702,2.6922,2.6922,2.6922,0,0,2.6908,2.6903,2.6914,2.6924,2.6923,2.6939,2.69,2.6919,2.693,2.6894,2.6919,2.6914,2.6913,2.6947,2.6962,2.6945,2.702,2.6994,2.7,2.7,2.7017,2.7026,2.7034,2.6925,2.6924,2.6924,0,0,2.6974,2.6974,2.7001,2.7001,2.7,2.6988,2.6995,2.6988,2.6982,2.7008,2.698,2.6993,2.7015,2.7014,2.7017,2.7082,2.7059,2.7086,2.7126,2.7144,2.7152,2.7159,2.7179,2.7188,2.7091,2.7091,2.7091,0,2.7015,2.7039,2.7018,2.7039,2.7043,2.7011,2.7037,2.7038,2.704,2.7043,2.7025,2.7049,2.7046,2.7078,2.7094,2.7099,2.7104,2.7086,2.7153,2.7159,2.7165,2.7185,2.7193,2.7094,2.7094,2.7094,2.7093,0,2.7087,2.7104,2.7126,2.7128,2.7135,2.7159,2.7141,2.715,2.7135,2.7125,2.715,2.7146,2.7153,2.716,2.7145,2.719,2.7179,2.7157,2.7123,2.7178,2.7196,2.7203,2.7099,2.7097,2.7097,2.7096,0,0,2.7185,2.7175,2.7183,2.7182,2.7178,2.719,2.7212,2.7219,2.7226,2.7229,2.7245,2.7264,2.7243,2.7246,2.7231,2.7247,2.7296,2.7223,2.7223,2.7234,2.7341,2.7355,2.7364,2.7282,2.7283,2.7284,2.734,0,2.7247,2.7283,2.7265,2.7303,2.7316,2.7286,2.7304,2.7303,2.7295,2.7304,2.7295,2.7307,2.7281,2.7282,2.7297,2.7287,2.7316,2.7283,2.7295,2.7295,2.7293,2.7374,2.739,2.7443,2.7347,2.7349,2.7349,0,2.7324,2.7329,2.7368,2.7359,2.7364,2.7381,2.7385,2.7396,2.7393,2.7386,2.7389,2.7369,2.7388,2.7357,2.7382,2.736,2.7364,2.736,2.7361,2.7359,2.7324,2.7372,2.7459,2.7466,2.7361,2.736,2.7359,0,2.7388,2.7404,2.7429,2.743,2.7421,2.7433,2.743,2.7426,2.7431,2.7434,2.7437,2.7443,2.7446,2.7451,2.7433,2.7412,2.746,2.7427,2.7452,2.7452,2.7461,2.7461,2.7548,2.7469,2.7469,2.7469,2.7469,0,2.7457,2.7482,2.7457,2.7472,2.7498,2.7476,2.7502,2.7496,2.7492,2.7505,2.748,2.7492,2.7469,2.7479,2.7465,2.7487,2.7489,2.7482,2.7478,2.7483,2.7483,2.7483,2.7478,2.7471,2.747,2.747,2.747,0,2.7531,2.7516,2.7541,2.753,2.7528,2.7547,2.7537,2.755,2.754,2.7556,2.7558,2.7542,2.7552,2.7535,2.7544,2.7534,2.7563,2.7555,2.7564,2.756,2.7585,2.7582,2.7673,2.7683,2.76,2.7601,2.7602,0,2.7575,2.7593,2.7584,2.759,2.7588,2.7599,2.7603,2.7583,2.7589,2.7587,2.7599,2.7607,2.7612,2.7629,2.7617,2.7623,2.7612,2.7644,2.7613,2.7617,2.7609,2.7608,2.7608,2.765,2.7651,2.7651,2.7652,0,2.7654,2.7645,2.7652,2.7657,2.7662,2.7665,2.7666,2.7672,2.7651,2.7658,2.7667,2.7671,2.7679,2.7686,2.7689,2.7685,2.7664,2.7662,2.7668,2.7672,2.7675,2.7671,2.7578,2.766,2.7659,2.7658,2.7658,2.7658,2.7712,2.7725,2.772,2.7729,2.7727,2.7728,2.7739,2.7729,2.7737,2.7741,2.7729,2.7741,2.7737,2.7738,2.7736,2.7745,2.7731,2.7739,2.7741,2.7743,2.7746,2.7676,2.7746,2.7745,2.7745,2.7745,2.7745,0,2.7787,2.7782,2.779,2.7791,2.7797,2.7778,2.7778,2.7784,2.7794,2.7792,2.7797,2.7807,2.7814,2.7803,2.7808,2.7816,2.7807,2.7818,2.7816,2.7815,2.7759,2.7753,2.7825,2.7825,2.7825,2.7825,2.7825,2.7825,2.7826,2.7846,2.7837,2.7856,2.7851,2.7862,2.7863,2.7863,2.7861,2.7873,2.7878,2.7871,2.7865,2.7869,2.7874,2.7871,2.7872,2.7886,2.7879,2.7827,2.7819,2.7811,2.7805,2.7887,2.7888,2.7934,2.7934,2.7934]}]]